Regional Weather Roundup
Issued by NWS Little Rock, AR

Home | Current Version | Previous Version | Text Only | Print | Product List | Glossary Off
Versions: 1 2 3 4 5 6 7 8 9 10 11 12 13 14 15 16 17 18 19 20 21 22 23 24 25 26 27 28 29 30 31 32 33 34 35 36 37 38 39 40 41 42 43 44 45 46 47 48

000
ASUS44 KLZK 012005
RWRLZK

WEATHER ROUNDUP FOR ARKANSAS
NATIONAL WEATHER SERVICE LITTLE ROCK AR
300 PM CDT SAT AUG 01 2015

NOTE: "FAIR" INDICATES FEW OR NO CLOUDS BELOW 12,000 FEET WITH NO
SIGNIFICANT WEATHER AND/OR OBSTRUCTIONS TO VISIBILITY.

ARZ001-003-010-029-012100-
NORTHWEST ARKANSAS

CITY           SKY/WX    TMP DP  RH WIND       PRES   REMARKS
FAYETTEVILLE   SUNNY     89  67  47 VRB7      30.05F HX  92
FORT SMITH     SUNNY     94  60  32 N6        30.01F HX  94
HARRISON       SUNNY     90  61  37 VRB5      30.06F HX  90
BENTONVILLE    PTSUNNY   90  63  40 W9        30.07F HX  90
ROGERS         MOSUNNY   88  64  44 W5        30.06F HX  89
SILOAM SPGS    SUNNY     91  64  40 NW6         N/A  HX  93
HIGHFILL       SUNNY     90  65  43 W8        30.05F HX  92
$$

ARZ004-005-016-012100-
NORTH CENTRAL ARKANSAS

CITY           SKY/WX    TMP DP  RH WIND       PRES   REMARKS
BATESVILLE     SUNNY     91  66  43 W8        30.01F HX  94
FLIPPIN        SUNNY     91  63  38 NE6       30.02F HX  92
MTN HOME       SUNNY     89  62  40 VRB3      30.03F HX  89
$$

ARZ040-041-012100-
WEST CENTRAL ARKANSAS

CITY           SKY/WX    TMP DP  RH WIND       PRES   REMARKS
MENA           SUNNY     97  50  20 E6        30.05F HX  94
MOUNT IDA      SUNNY     95  54  25 S3        30.00F HX  93
$$

ARZ009-017-025-026-028-012100-
NORTHEAST ARKANSAS

CITY           SKY/WX    TMP DP  RH WIND       PRES   REMARKS
JONESBORO      SUNNY     92  64  39 VRB5      29.99F HX  93
NEWPORT        SUNNY     93  69  45 NE5       30.01F HX  98
WALNUT RIDGE   SUNNY     93  64  38 NE8       29.99F HX  95
BLYTHEVILLE    SUNNY     92  72  51 NW6       29.99F HX  99
$$

ARZ022-023-033-042-044-012100-
CENTRAL ARKANSAS

CITY           SKY/WX    TMP DP  RH WIND       PRES   REMARKS
LITTLE ROCK    PTSUNNY   95  62  33 S12       29.99F HX  96
N LITTLE ROCK  PTSUNNY   95  63  34 S8        29.99F HX  96
JACKSONVILLE   MOSUNNY   97  59  28 VRB2      29.99F HX  96
SEARCY         MOSUNNY   94  61  33 VRB5      30.00F HX  94
HOT SPRINGS    MOSUNNY   96  54  24 E7        30.00F HX  94
RUSSELLVILLE   MOSUNNY   94  64  37 W8        30.00F HX  95
CLINTON        FAIR      93  63  36 W5        30.02F HX  94
$$

ARZ036-012100-
EAST ARKANSAS

CITY           SKY/WX    TMP DP  RH WIND       PRES   REMARKS
WEST MEMPHIS   SUNNY     94  65  38 N6        29.98F HX  96
$$

ARZ050-053-066-070-073-012100-
SOUTHWEST ARKANSAS

CITY           SKY/WX    TMP DP  RH WIND       PRES   REMARKS
ARKADELPHIA    FAIR      98  61  29 S7        30.00F HX  98
CAMDEN         MOSUNNY   95  57  28 E3        30.00F HX  94
TEXARKANA      SUNNY     94  60  32 SE5       30.01F HX  94
EL DORADO      MOSUNNY   93  59  31 VRB3      30.00F HX  92
DE QUEEN       SUNNY     94  59  31 S8        30.00F HX  93
$$

ARZ056-057-069-012100-
SOUTHEAST ARKANSAS

CITY           SKY/WX    TMP DP  RH WIND       PRES   REMARKS
PINE BLUFF     SUNNY     95  59  30 E6        30.00F HX  94
STUTTGART      SUNNY     95  63  34 MISG      30.00F HX  96
MONTICELLO     SUNNY     95  58  28 NE12G17   30.00F HX  94

$$





USA.gov is the U.S. government's official web portal to all federal, state and local government web resources and services.